New Iberia, LA

7:29 PM CDT on June 25, 2017 (GMT -0500)
Acadiana Regional

Weather History for KARA - April, 2014

Change the Weather History Date:

Sunday, April 6, 2014

  Actual Average Record
Temperature  
Mean Temperature 67 °F 66 °F  
Max Temperature 75 °F 77 °F 86 °F (2005)
Min Temperature 59 °F 55 °F 38 °F (1971)
Degree Days  
Heating Degree Days 0 3  
Month to date heating degree days 0 18  
Since 1 July heating degree days 1737 1382  
Cooling Degree Days 2 3  
Month to date cooling degree days 31 18  
Year to date cooling degree days 72 101  
Growing Degree Days 16 (Base 50)    
Moisture  
Dew Point 65 °F    
Average Humidity 92    
Maximum Humidity 100    
Minimum Humidity 84    
Precipitation  
Precipitation 0.64 in 0.16 in 1.97 in (1983)
Month to date precipitation 0.95 0.88  
Year to date precipitation 10.80 14.06  
Sea Level Pressure  
Sea Level Pressure 29.78 in    
Wind  
Wind Speed 12 mph (ESE)    
Max Wind Speed 37 mph    
Max Gust Speed 49 mph    
Visibility 4 miles    
Events Rain , Thunderstorm    
T = Trace of Precipitation, MM = Missing Value Source: NWS Daily Summary

Daily Weather History Graph

Daily Weather History Graph

Search for Another Location

Airport or City:

Trip Planner

Search our weather history database for the weather conditions in past years. The results will help you decide how hot, cold, wet, or windy it might be!

Date:

Astronomy

Apr. 06, 2014 Rise Set
Actual Time 6:50 AM CDT 7:29 PM CDT
Civil Twilight 6:26 AM CDT 7:53 PM CDT
Nautical Twilight 5:58 AM CDT 8:22 PM CDT
Astronomical Twilight 5:29 AM CDT 8:51 PM CDT
Moon 12:05 PM CDT (4/6) 1:11 AM CDT (4/6)
Length of Visible Light 13h 26m
Length of Day
12h 38m
Waxing Crescent, 44% of the Moon is Illuminated
Apr 6
Waxing Crescent
Apr 7
First Quarter
Apr 15
Full
Apr 22
Last Quarter
Apr 29
New

Hourly Weather History & Observations

Time (CDT) Temp. Dew Point Humidity Pressure Visibility Wind Dir Wind Speed Gust Speed Precip Events Conditions
12:08 AM 61.0 °F 57.9 °F 90% 29.95 in 5.0 mi ENE 8.1 mph - N/A   Overcast
12:53 AM 61.0 °F 57.9 °F 90% 29.94 in 6.0 mi ENE 8.1 mph - 0.04 in   Overcast
1:53 AM 60.1 °F 57.9 °F 93% 29.88 in 3.0 mi East 8.1 mph - 0.00 in   Overcast
2:16 AM 61.0 °F 57.9 °F 90% 29.89 in 3.0 mi East 5.8 mph - N/A   Overcast
2:32 AM 61.0 °F 59.0 °F 93% 29.89 in 2.5 mi East 6.9 mph - N/A   Overcast
2:53 AM 61.0 °F 59.0 °F 93% 29.89 in 2.0 mi NE 6.9 mph - N/A   Overcast
3:17 AM 61.0 °F 59.0 °F 93% 29.89 in 2.0 mi ENE 8.1 mph - N/A   Overcast
3:42 AM 61.0 °F 59.0 °F 93% 29.89 in 1.8 mi NE 6.9 mph - N/A   Overcast
3:53 AM 61.0 °F 59.0 °F 93% 29.89 in 1.5 mi ENE 6.9 mph - N/A   Overcast
4:53 AM 61.0 °F 59.0 °F 93% 29.89 in 1.5 mi NE 8.1 mph - N/A   Overcast
5:53 AM 60.1 °F 57.9 °F 93% 29.88 in 1.0 mi NE 10.4 mph - N/A   Overcast
6:53 AM 59.0 °F 57.9 °F 96% 29.91 in 1.8 mi NNE 11.5 mph - N/A   Overcast
7:12 AM 59.0 °F 57.0 °F 93% 29.91 in 2.0 mi NE 12.7 mph - N/A   Overcast
7:21 AM 59.0 °F 57.0 °F 93% 29.90 in 1.5 mi NE 9.2 mph - N/A   Overcast
7:53 AM 59.0 °F 57.9 °F 96% 29.88 in 1.0 mi ENE 8.1 mph - N/A   Overcast
8:08 AM 59.0 °F 57.9 °F 96% 29.87 in 0.8 mi East 10.4 mph - N/A   Overcast
8:26 AM 60.1 °F 57.9 °F 93% 29.86 in 1.0 mi ESE 10.4 mph - N/A   Overcast
8:53 AM 61.0 °F 59.0 °F 93% 29.86 in 1.8 mi ESE 11.5 mph - N/A   Overcast
9:53 AM 63.0 °F 62.1 °F 97% 29.83 in 1.8 mi ESE 13.8 mph - N/A   Overcast
10:10 AM 64.0 °F 62.1 °F 93% 29.84 in 2.0 mi ESE 11.5 mph - N/A   Overcast
10:53 AM 66.0 °F 64.0 °F 93% 29.83 in 3.0 mi East 12.7 mph - N/A   Overcast
11:10 AM 66.9 °F 64.0 °F 90% 29.83 in 3.0 mi East 6.9 mph - N/A   Overcast
11:30 AM 68.0 °F 64.9 °F 90% 29.83 in 4.0 mi East 9.2 mph - N/A   Overcast
11:53 AM 69.1 °F 66.0 °F 90% 29.81 in 4.0 mi East 9.2 mph - N/A   Overcast
12:43 PM 70.0 °F 66.0 °F 87% 29.79 in 4.0 mi East 9.2 mph - N/A   Overcast
12:53 PM 70.0 °F 66.0 °F 87% 29.79 in 4.0 mi East 10.4 mph - N/A   Overcast
1:24 PM 69.1 °F 64.9 °F 87% 29.78 in 4.0 mi ENE 11.5 mph - N/A   Overcast
1:53 PM 69.1 °F 64.9 °F 87% 29.75 in 5.0 mi ENE 9.2 mph - N/A   Overcast
2:53 PM 69.1 °F 64.9 °F 87% 29.72 in 4.0 mi East 5.8 mph - N/A   Overcast
3:53 PM 72.0 °F 68.0 °F 87% 29.69 in 5.0 mi SE 8.1 mph - N/A   Overcast
4:53 PM 73.9 °F 71.1 °F 91% 29.68 in 4.0 mi South 12.7 mph - 0.00 in Rain Light Rain
5:04 PM 73.9 °F 71.1 °F 91% 29.68 in 2.5 mi South 12.7 mph - 0.01 in Rain Light Rain
5:21 PM 73.9 °F 71.1 °F 91% 29.68 in 4.0 mi South 12.7 mph - 0.01 in Rain Light Rain
5:53 PM 73.9 °F 71.1 °F 91% 29.68 in 5.0 mi South 18.4 mph 25.3 mph 0.01 in   Overcast
6:53 PM 73.9 °F 71.1 °F 91% 29.67 in 4.0 mi South 17.3 mph - N/A   Overcast
7:53 PM 73.9 °F 71.1 °F 91% 29.66 in 6.0 mi South 18.4 mph 27.6 mph N/A   Overcast
8:53 PM 73.9 °F 71.1 °F 91% 29.67 in 6.0 mi South 18.4 mph 26.5 mph N/A   Overcast
9:53 PM 73.9 °F 71.1 °F 91% 29.67 in 6.0 mi South 16.1 mph - N/A   Overcast
10:03 PM 73.9 °F 71.1 °F 91% 29.67 in 6.0 mi SSW 16.1 mph 29.9 mph 0.01 in Rain , Thunderstorm Light Rain
10:10 PM 73.9 °F 71.1 °F 91% 29.68 in 2.5 mi SSW 19.6 mph 29.9 mph 0.14 in Rain , Thunderstorm Heavy Thunderstorms and Rain
10:17 PM 73.0 °F 71.1 °F 93% 29.68 in 1.2 mi SSW 16.1 mph 26.5 mph 0.27 in Rain , Thunderstorm Heavy Thunderstorms and Rain
10:23 PM 73.0 °F 70.0 °F 90% 29.67 in 3.0 mi SSW 20.7 mph 31.1 mph 0.27 in Rain , Thunderstorm Light Thunderstorms and Rain
10:41 PM 72.0 °F 69.1 °F 91% 29.66 in 8.0 mi North - - 0.29 in Rain , Thunderstorm Light Rain
10:50 PM 73.4 °F 69.8 °F 88% 29.67 in 8.0 mi SSW 19.6 mph 26.5 mph 0.29 in Rain , Thunderstorm Light Thunderstorms and Rain
10:53 PM 73.9 °F 71.1 °F 91% 29.66 in 8.0 mi South 19.6 mph 29.9 mph 0.29 in Rain , Thunderstorm Light Thunderstorms and Rain
11:05 PM 73.0 °F 71.1 °F 93% 29.64 in 6.0 mi South 16.1 mph 29.9 mph 0.00 in Rain , Thunderstorm Light Rain
11:19 PM 73.0 °F 71.1 °F 93% 29.65 in 2.5 mi South 19.6 mph 28.8 mph 0.13 in Rain , Thunderstorm Heavy Thunderstorms and Rain
11:32 PM 71.1 °F 66.9 °F 87% 29.63 in 5.0 mi South 15.0 mph 38.0 mph 0.18 in Rain , Thunderstorm Thunderstorms and Rain
11:39 PM 73.9 °F 70.0 °F 87% 29.64 in 9.0 mi SSW 21.9 mph 31.1 mph 0.19 in Rain , Thunderstorm Light Thunderstorms and Rain
11:53 PM 73.0 °F 70.0 °F 90% 29.65 in 3.0 mi SSW 18.4 mph 25.3 mph 0.28 in Rain , Thunderstorm Heavy Thunderstorms and Rain